Minneapolis-St Paul International/Wold-Chamberlain Airport
KMSP : now visible

Airfield :











YOU CAN JOIN US ON...

 
LOGIN :

Register | Disclaimer

   EN    FR    IT 

 









Legend :    VFR   Marginal VFR   IFR   Intensive IFR   Very Intensive IFR
Visi :
Ceiling :
>= 8 km
>= 3000ft
5 to 8 km
1000 to 3000 ft
1500m to 5 km
500 to 1000 ft
800 to 1500m
200 to 500 ft
< 800m
< 200 ft
Symbols :   Thunderstorms  Fog  Heavy snow  Heavy precipitations  Wind > 20 kt







- Airport Elevation : 841 ft
- IATA code : MSP


KMSP - Minneapolis-St Paul International/Wold-Chamberlain

CURRENT METAR :
  • 210453Z 09005KT 10SM OVC250 12/04 A3011 RMK AO2 SLP198 T01170039

EXPIRED METARs :
  • 210353Z 08006KT 10SM OVC250 13/03 A3011 RMK AO2 SLP199 T01330033
  • 210253Z 09006KT 10SM OVC250 13/03 A3011 RMK AO2 SLP198 T01330033 55006

TAF KMSP
Valid from the 21 at 03:00 until the 22 at 06:00 UTC


210253Z 2103/2206 08005KT P6SM BKN250
FM211300 08011KT P6SM OVC250
FM211900 09019G28KT P6SM OVC080
FM212200 09019G31KT 6SM -SHRA BR OVC040
FM220300 09019G31KT 6SM SHRA BR OVC025
KZMP FIR / North America



MET'MAP, your aeronautical weather chart ! - Copyright ORBIFLY December 2007 - Disclaimer

ORBIFLY MET'MAP TEAM :

Programming & Development : Alexandra Zaïnal
Concept & Development : Baudouin d'Aumeries
Co-Development & Prog : Marc-Olivier Méhu
Technical & hardware support : Manuel Goepfert

Contact : metmap@orbifly.com




SOURCES & CREDITS :

   NOAA       Earth
Advisory